Weather History for K05U - September, 2013

Change the Weather History Date:

Monday, September 16, 2013

  Actual Average Record
Temperature  
Mean Temperature 70 °F -  
Max Temperature 84 °F - - ()
Min Temperature 55 °F - - ()
Cooling Degree Days 4    
Growing Degree Days 20 (Base 50)    
Moisture  
Dew Point 39 °F    
Average Humidity 36    
Maximum Humidity 58    
Minimum Humidity 16    
Precipitation  
Precipitation 0.00 in - - ()
Sea Level Pressure  
Sea Level Pressure 30.06 in    
Wind  
Wind Speed 7 mph (South)    
Max Wind Speed 20 mph    
Max Gust Speed 28 mph    
Visibility 10 miles    
Events      
T = Trace of Precipitation, MM = Missing Value Source: NWS Daily Summary

Daily Weather History Graph

Daily Weather History Graph

Search for Another Location

Airport or City:

Trip Planner

Search our weather history database for the weather conditions in past years. The results will help you decide how hot, cold, wet, or windy it might be!

Date:

Astronomy

Sep. 16, 2013 Rise Set
Actual Time 6:26 AM PDT 6:50 PM PDT
Civil Twilight 5:59 AM PDT 7:17 PM PDT
Nautical Twilight 5:27 AM PDT 7:48 PM PDT
Astronomical Twilight 4:55 AM PDT 8:21 PM PDT
Moon 5:01 PM PDT (9/16) 3:18 AM PDT (9/16)
Length of Visible Light 13h 17m
Length of Day
12h 24m
Waxing Gibbous, 91% of the Moon is Illuminated
Sep 16
Waxing Gibbous
Sep 19
Full
Sep 26
Last Quarter
Oct 4
New
Oct 11
First Quarter

Hourly Weather History & Observations

Time (PDT) Temp. Dew Point Humidity Pressure Visibility Wind Dir Wind Speed Gust Speed Precip Events Conditions
12:00 AM 62.6 °F 46.4 °F 55% 30.07 in 10.0 mi SSW 3.5 mph - N/A   Clear
12:20 AM 64.4 °F 46.4 °F 52% 30.07 in 10.0 mi Calm Calm - N/A   Scattered Clouds
12:40 AM 62.6 °F 46.4 °F 55% 30.08 in 10.0 mi ESE 3.5 mph - N/A   Mostly Cloudy
1:00 AM 62.6 °F 44.6 °F 52% 30.08 in 10.0 mi ESE 4.6 mph - N/A   Mostly Cloudy
1:20 AM 62.6 °F 44.6 °F 52% 30.08 in 10.0 mi SSW 3.5 mph - N/A   Mostly Cloudy
1:40 AM 64.4 °F 42.8 °F 45% 30.09 in 10.0 mi North 3.5 mph - N/A   Scattered Clouds
2:00 AM 66.2 °F 39.2 °F 37% 30.09 in 10.0 mi Calm Calm - N/A   Mostly Cloudy
2:20 AM 64.4 °F 41.0 °F 42% 30.09 in 10.0 mi South 5.8 mph - N/A   Overcast
2:40 AM 62.6 °F 41.0 °F 45% 30.09 in 10.0 mi SE 6.9 mph - N/A   Mostly Cloudy
3:00 AM 62.6 °F 41.0 °F 45% 30.09 in 10.0 mi SSE 6.9 mph - N/A   Partly Cloudy
3:20 AM 59.0 °F 41.0 °F 51% 30.09 in 10.0 mi South 5.8 mph - N/A   Clear
3:40 AM 57.2 °F 41.0 °F 55% 30.09 in 10.0 mi Calm Calm - N/A   Clear
4:00 AM 59.0 °F 39.2 °F 48% 30.09 in 10.0 mi Calm Calm - N/A   Clear
4:20 AM 59.0 °F 39.2 °F 48% 30.10 in 10.0 mi South 3.5 mph - N/A   Clear
4:40 AM 57.2 °F 41.0 °F 55% 30.10 in 10.0 mi SSW 3.5 mph - N/A   Clear
5:00 AM 57.2 °F 39.2 °F 51% 30.10 in 10.0 mi SE 3.5 mph - N/A   Clear
5:20 AM 55.4 °F 41.0 °F 58% 30.10 in 10.0 mi South 4.6 mph - N/A   Clear
5:40 AM 55.4 °F 39.2 °F 54% 30.10 in 10.0 mi SSE 6.9 mph - N/A   Clear
6:00 AM 57.2 °F 39.2 °F 51% 30.11 in 10.0 mi South 6.9 mph - N/A   Clear
6:20 AM 57.2 °F 39.2 °F 51% 30.11 in 10.0 mi South 3.5 mph - N/A   Clear
6:40 AM 55.4 °F 39.2 °F 54% 30.11 in 10.0 mi SSW 4.6 mph - N/A   Clear
7:00 AM 55.4 °F 41.0 °F 58% 30.12 in 10.0 mi South 3.5 mph - N/A   Clear
7:20 AM 59.0 °F 39.2 °F 48% 30.12 in 10.0 mi SSE 5.8 mph - N/A   Clear
7:40 AM 62.6 °F 41.0 °F 45% 30.13 in 10.0 mi SSE 4.6 mph - N/A   Clear
8:00 AM 66.2 °F 42.8 °F 43% 30.12 in 10.0 mi SSE 6.9 mph - N/A   Clear
8:20 AM 68.0 °F 42.8 °F 40% 30.12 in 10.0 mi South 3.5 mph - N/A   Clear
8:40 AM 71.6 °F 41.0 °F 33% 30.12 in 10.0 mi SSE 8.1 mph - N/A   Clear
9:00 AM 73.4 °F 41.0 °F 31% 30.12 in 10.0 mi SSE 9.2 mph - N/A   Clear
9:20 AM 75.2 °F 41.0 °F 29% 30.12 in 10.0 mi SSE 11.5 mph - N/A   Clear
9:40 AM 75.2 °F 41.0 °F 29% 30.13 in 10.0 mi SSE 13.8 mph - N/A   Clear
10:00 AM 77.0 °F 41.0 °F 28% 30.13 in 10.0 mi SE 13.8 mph - N/A   Clear
10:20 AM 77.0 °F 41.0 °F 28% 30.12 in 10.0 mi SSE 13.8 mph - N/A   Clear
10:40 AM 78.8 °F 39.2 °F 24% 30.12 in 10.0 mi South 12.7 mph 21.9 mph N/A   Clear
11:00 AM 78.8 °F 39.2 °F 24% 30.12 in 10.0 mi SSW 16.1 mph - N/A   Clear
11:20 AM 78.8 °F 39.2 °F 24% 30.12 in 10.0 mi South 16.1 mph 24.2 mph N/A   Clear
11:40 AM 80.6 °F 39.2 °F 23% 30.11 in 10.0 mi South 18.4 mph 23.0 mph N/A   Clear
12:00 PM 80.6 °F 39.2 °F 23% 30.11 in 10.0 mi South 18.4 mph 26.5 mph N/A   Clear
12:20 PM 80.6 °F 37.4 °F 21% 30.10 in 10.0 mi South 19.6 mph 26.5 mph N/A   Partly Cloudy
12:40 PM 80.6 °F 37.4 °F 21% 30.10 in 10.0 mi SW 15.0 mph 21.9 mph N/A   Partly Cloudy
1:00 PM 82.4 °F 37.4 °F 20% 30.09 in 10.0 mi SSW 11.5 mph 24.2 mph N/A   Partly Cloudy
1:20 PM 82.4 °F 37.4 °F 20% 30.08 in 10.0 mi South 16.1 mph 23.0 mph N/A   Scattered Clouds
1:40 PM 84.2 °F 37.4 °F 19% 30.07 in 10.0 mi South 17.3 mph 23.0 mph N/A   Scattered Clouds
2:00 PM 84.2 °F 37.4 °F 19% 30.06 in 10.0 mi South 13.8 mph 19.6 mph N/A   Clear
2:20 PM 84.2 °F 39.2 °F 20% 30.05 in 10.0 mi South 19.6 mph 27.6 mph N/A   Partly Cloudy
2:40 PM 84.2 °F 37.4 °F 19% 30.05 in 10.0 mi South 15.0 mph 19.6 mph N/A   Scattered Clouds
3:00 PM 84.2 °F 37.4 °F 19% 30.04 in 10.0 mi South 15.0 mph 25.3 mph N/A   Partly Cloudy
3:20 PM 84.2 °F 35.6 °F 18% 30.03 in 10.0 mi South 16.1 mph 21.9 mph N/A   Partly Cloudy
3:40 PM 84.2 °F 35.6 °F 18% 30.02 in 10.0 mi SSW 15.0 mph 24.2 mph N/A   Partly Cloudy
4:00 PM 84.2 °F 35.6 °F 18% 30.01 in 10.0 mi South 10.4 mph 24.2 mph N/A   Clear
4:20 PM 84.2 °F 37.4 °F 19% 30.01 in 10.0 mi South 15.0 mph - N/A   Clear
4:40 PM 84.2 °F 35.6 °F 18% 30.00 in 10.0 mi South 17.3 mph 24.2 mph N/A   Scattered Clouds
5:00 PM 84.2 °F 35.6 °F 18% 30.00 in 10.0 mi South 17.3 mph 23.0 mph N/A   Scattered Clouds
5:20 PM 84.2 °F 33.8 °F 16% 29.99 in 10.0 mi South 15.0 mph 21.9 mph N/A   Partly Cloudy
5:40 PM 82.4 °F 35.6 °F 19% 29.99 in 10.0 mi South 17.3 mph 23.0 mph N/A   Clear
6:00 PM 80.6 °F 35.6 °F 20% 29.98 in 10.0 mi SSW 9.2 mph - N/A   Clear
6:20 PM 77.0 °F 37.4 °F 24% 29.98 in 10.0 mi South 13.8 mph 19.6 mph N/A   Clear
6:40 PM 77.0 °F 37.4 °F 24% 29.98 in 10.0 mi South 9.2 mph - N/A   Clear
7:00 PM 73.4 °F 39.2 °F 29% 29.98 in 10.0 mi South 10.4 mph - N/A   Clear
7:20 PM 71.6 °F 39.2 °F 31% 29.98 in 10.0 mi South 10.4 mph - N/A   Clear
7:40 PM 68.0 °F 41.0 °F 37% 29.98 in 10.0 mi SSE 9.2 mph - N/A   Clear
8:00 PM 66.2 °F 41.0 °F 40% 29.99 in 10.0 mi South 5.8 mph - N/A   Clear
8:20 PM 62.6 °F 41.0 °F 45% 29.99 in 10.0 mi SSE 5.8 mph - N/A   Clear
8:40 PM 62.6 °F 39.2 °F 42% 29.99 in 10.0 mi South 5.8 mph - N/A   Clear
9:00 PM 64.4 °F 39.2 °F 40% 29.99 in 10.0 mi South 8.1 mph - N/A   Clear
9:20 PM 66.2 °F 37.4 °F 35% 29.99 in 10.0 mi South 10.4 mph - N/A   Clear
9:40 PM 66.2 °F 35.6 °F 32% 30.00 in 10.0 mi South 10.4 mph - N/A   Clear
10:00 PM 62.6 °F 37.4 °F 39% 30.00 in 10.0 mi South 8.1 mph - N/A   Clear
10:20 PM 62.6 °F 39.2 °F 42% 30.01 in 10.0 mi SSE 8.1 mph - N/A   Clear
10:40 PM 62.6 °F 37.4 °F 39% 30.00 in 10.0 mi South 9.2 mph - N/A   Clear
11:00 PM 60.8 °F 39.2 °F 45% 30.01 in 10.0 mi South 9.2 mph - N/A   Clear
11:20 PM 60.8 °F 39.2 °F 45% 30.00 in 10.0 mi SSE 10.4 mph - N/A   Clear
11:40 PM 60.8 °F 39.2 °F 45% 30.00 in 10.0 mi SSE 6.9 mph - N/A   Clear